Regional Weather Roundup
Issued by NWS

Home | Current Version | Previous Version | Graphics & Text | Print | Product List | Glossary On
Versions: 1 2 3 4 5 6 7 8 9 10 11 12 13 14 15 16 17 18 19 20 21 22 23 24 25 26 27 28 29 30 31 32 33 34 35 36 37 38 39 40 41 42 43 44 45 46 47 48 49 50
000
ASUS43 KLMK 260310
RWRKY
KENTUCKY REGIONAL WEATHER ROUNDUP
NATIONAL WEATHER SERVICE LOUISVILLE KY
1000 PM EST THU DEC 25 2014

NOTE "FAIR" INDICATES FEW OR NO CLOUDS BELOW 12,000 FEET
WITH NO SIGNIFICANT WEATHER AND/OR OBSTRUCTIONS TO VISIBILITY.

KYZ001>023-026-027-061>063-070>075-260400-
WESTERN AND SOUTH CENTRAL KENTUCKY

CITY           SKY/WX    TMP DP  RH WIND       PRES   REMARKS
PADUCAH        PTCLDY    42  33  70 S10       30.11S
HENDERSON      CLEAR     39  30  70 S8        30.12S WCI  34
OWENSBORO      CLEAR     39  34  82 S12       30.15S WCI  32
HOPKINSVILLE   CLEAR     41  34  75 SE5       30.15R
BOWLING GREEN  CLEAR     33  30  88 CALM      30.17S
GLASGOW        FAIR      36  32  86 E3        30.17F
$$

KYZ024-025-028>034-038-045-046-053-260400-
NORTH CENTRAL KENTUCKY

CITY           SKY/WX    TMP DP  RH WIND       PRES   REMARKS
LOUISVILLE/SDF CLEAR     36  31  82 SE5       30.18S WCI  32
LOUISVILLE/LOU CLEAR     37  31  78 CALM      30.18F
FORT KNOX      CLEAR     35  32  87 E5        30.15F WCI  31
$$

KYZ035>037-039>044-047>052-055>060-089>105-260400-
NORTHEAST KENTUCKY

CITY           SKY/WX    TMP DP  RH WIND       PRES   REMARKS
LEXINGTON      CLEAR     33  29  85 SE7       30.18F WCI  27
COVINGTON      CLEAR     35  28  75 S8        30.18F WCI  29
FRANKFORT      CLEAR     30  28  92 CALM      30.18F
$$

KYZ054-064>069-076>088-106>120-260400-
SOUTHEAST KENTUCKY

CITY           SKY/WX    TMP DP  RH WIND       PRES   REMARKS
JACKSON        CLEAR     38  30  73 SE3       30.20F
LONDON         CLEAR     33  28  81 CALM      30.19F
SOMERSET       CLEAR     32  32 100 CALM      30.22R
MIDDLESBORO    CLEAR    N/A N/A N/A SW3       30.24
MONTICELLO     CLEAR     29  28  96 CALM      30.22S
$$



USA.gov is the U.S. government's official web portal to all federal, state and local government web resources and services.